Location: Newark
(44.1667°N, 8.2500°E)
Time: 00:41:57
(UTC+00:00)

Vanguard 2 - Pass Details

Date: 14 December 2019
Orbit: 553 x 2938 km, 32.9° (Epoch: 21 January)

Event Time Altitude Azimuth Distance (km) Brightness Sun altitude
Exits shadow 02:58:47 54° 205° (SSW) 3,358 10.3 -41.2°
Maximum altitude 03:00:41 56° 187° (S) 3,325 10.4 -40.9°
Drops below altitude 10° 03:17:00 10° 115° (ESE) 5,371 12.4 -37.9°
Sets 03:20:51 0° 112° (ESE) 6,166 12.9 -37.2°
